Time,TemperatureF,DewpointF,PressureIn,WindDirection,WindDirectionDegrees,WindSpeedMPH,WindSpeedGustMPH,Humidity,HourlyPrecipIn,Conditions,Clouds,dailyrainin,SoftwareType,DateUTC
2013-08-07 00:01:00,55.9,55.1,27.76,NW,305,0.0,0.0,97,0.00,,---,0.10,VWS V14.01,2013-08-07 05:01:00,
2013-08-07 00:06:00,56.0,55.2,27.77,NW,305,0.0,0.0,97,0.00,,---,0.00,VWS V14.01,2013-08-07 05:06:00,
2013-08-07 00:11:00,56.0,55.2,27.77,NW,305,0.0,0.0,97,0.00,,---,0.00,VWS V14.01,2013-08-07 05:11:00,
2013-08-07 00:16:00,56.0,55.2,27.77,NW,305,0.0,0.0,97,0.00,,---,0.00,VWS V14.01,2013-08-07 05:16:00,
2013-08-07 00:21:00,56.2,55.4,27.77,NNW,333,3.0,4.0,97,0.00,,---,0.00,VWS V14.01,2013-08-07 05:21:00,
2013-08-07 00:26:00,56.4,55.6,27.77,North,350,0.0,1.0,97,0.00,,---,0.00,VWS V14.01,2013-08-07 05:26:00,
2013-08-07 00:32:00,56.5,55.7,27.78,NNW,344,0.0,1.0,97,0.00,,---,0.00,VWS V14.01,2013-08-07 05:32:00,
2013-08-07 00:37:00,56.6,55.8,27.78,NNW,333,2.0,3.0,97,0.00,,---,0.00,VWS V14.01,2013-08-07 05:37:00,
2013-08-07 00:42:00,56.6,55.8,27.78,North,355,2.0,5.0,97,0.00,,---,0.00,VWS V14.01,2013-08-07 05:42:00,
2013-08-07 00:47:00,56.5,55.7,27.78,North,10,2.0,3.0,97,0.00,,---,0.00,VWS V14.01,2013-08-07 05:47:00,
2013-08-07 00:52:00,56.5,55.7,27.78,North,360,0.0,4.0,97,0.00,,---,0.00,VWS V14.01,2013-08-07 05:52:00,
2013-08-07 00:57:00,56.5,55.7,27.78,North,360,1.0,1.0,97,0.00,,---,0.00,VWS V14.01,2013-08-07 05:57:00,
2013-08-07 01:02:00,56.6,55.8,27.78,North,360,1.0,4.0,97,0.00,,---,0.00,VWS V14.01,2013-08-07 06:02:00,
2013-08-07 01:07:00,56.6,55.8,27.78,North,355,2.0,2.0,97,0.00,,---,0.00,VWS V14.01,2013-08-07 06:07:00,
2013-08-07 01:12:00,56.5,55.7,27.78,North,5,1.0,4.0,97,0.00,,---,0.00,VWS V14.01,2013-08-07 06:12:00,
2013-08-07 01:17:00,56.5,55.7,27.78,North,349,3.0,3.0,97,0.00,,---,0.00,VWS V14.01,2013-08-07 06:17:00,
2013-08-07 01:23:00,56.5,55.7,27.78,NNW,346,0.0,2.0,97,0.00,,---,0.00,VWS V14.01,2013-08-07 06:23:00,
2013-08-07 01:28:00,56.5,55.7,27.78,NNW,337,2.0,6.0,97,0.00,,---,0.00,VWS V14.01,2013-08-07 06:28:00,
2013-08-07 01:33:00,56.4,55.6,27.79,North,360,2.0,4.0,97,0.00,,---,0.00,VWS V14.01,2013-08-07 06:33:00,
2013-08-07 01:38:00,56.4,55.6,27.79,North,360,0.0,1.0,97,0.00,,---,0.00,VWS V14.01,2013-08-07 06:38:00,
2013-08-07 01:43:00,56.2,55.1,27.79,NNE,17,3.0,5.0,96,0.00,,---,0.00,VWS V14.01,2013-08-07 06:43:00,
2013-08-07 01:48:00,56.2,55.1,27.79,North,360,1.0,3.0,96,0.00,,---,0.00,VWS V14.01,2013-08-07 06:48:00,
2013-08-07 01:54:00,56.1,55.0,27.79,North,5,0.0,2.0,96,0.00,,---,0.00,VWS V14.01,2013-08-07 06:54:00,
2013-08-07 01:59:00,56.1,55.0,27.79,NNE,16,1.0,5.0,96,0.00,,---,0.00,VWS V14.01,2013-08-07 06:59:00,
2013-08-07 02:04:00,56.1,55.0,27.79,NNE,19,0.0,3.0,96,0.00,,---,0.00,VWS V14.01,2013-08-07 07:04:00,
2013-08-07 02:09:00,56.0,54.9,27.79,NNE,19,1.0,4.0,96,0.00,,---,0.00,VWS V14.01,2013-08-07 07:09:00,
2013-08-07 02:14:00,56.0,54.9,27.79,NNE,19,0.0,3.0,96,0.00,,---,0.00,VWS V14.01,2013-08-07 07:14:00,
2013-08-07 02:19:00,55.9,54.8,27.80,NNE,19,0.0,0.0,96,0.00,,---,0.00,VWS V14.01,2013-08-07 07:19:00,
2013-08-07 02:24:00,55.9,54.8,27.80,NNE,19,0.0,1.0,96,0.00,,---,0.00,VWS V14.01,2013-08-07 07:24:00,
2013-08-07 02:30:00,55.9,54.8,27.80,North,350,2.0,5.0,96,0.00,,---,0.00,VWS V14.01,2013-08-07 07:30:00,
2013-08-07 02:35:00,55.9,54.8,27.80,NNW,330,4.0,4.0,96,0.00,,---,0.00,VWS V14.01,2013-08-07 07:35:00,
2013-08-07 02:40:00,55.8,54.7,27.80,North,360,1.0,4.0,96,0.00,,---,0.00,VWS V14.01,2013-08-07 07:40:00,
2013-08-07 02:45:00,55.7,54.6,27.80,NW,316,4.0,7.0,96,0.00,,---,0.00,VWS V14.01,2013-08-07 07:45:00,
2013-08-07 02:50:00,55.5,54.4,27.80,NNW,336,3.0,5.0,96,0.00,,---,0.00,VWS V14.01,2013-08-07 07:50:00,
2013-08-07 02:56:00,55.4,54.0,27.80,North,355,3.0,3.0,95,0.00,,---,0.00,VWS V14.01,2013-08-07 07:56:00,
2013-08-07 03:01:00,55.3,53.9,27.80,NNW,342,3.0,5.0,95,0.00,,---,0.00,VWS V14.01,2013-08-07 08:01:00,
2013-08-07 03:06:00,55.2,53.8,27.81,NNW,333,9.0,9.0,95,0.00,,---,0.00,VWS V14.01,2013-08-07 08:06:00,
2013-08-07 03:11:00,55.1,53.7,27.81,North,5,2.0,3.0,95,0.00,,---,0.00,VWS V14.01,2013-08-07 08:11:00,
2013-08-07 03:16:00,55.0,53.6,27.81,North,350,3.0,3.0,95,0.00,,---,0.00,VWS V14.01,2013-08-07 08:16:00,
2013-08-07 03:22:00,55.0,53.6,27.81,NNW,329,6.0,6.0,95,0.00,,---,0.00,VWS V14.01,2013-08-07 08:22:00,
2013-08-07 03:27:00,55.0,53.6,27.81,NNW,340,2.0,4.0,95,0.00,,---,0.00,VWS V14.01,2013-08-07 08:27:00,
2013-08-07 03:32:00,55.0,53.6,27.81,NNW,348,3.0,3.0,95,0.00,,---,0.00,VWS V14.01,2013-08-07 08:32:00,
2013-08-07 03:37:00,54.9,53.5,27.81,NW,324,0.0,0.0,95,0.00,,---,0.00,VWS V14.01,2013-08-07 08:37:00,
2013-08-07 03:42:00,54.8,53.4,27.81,North,360,1.0,5.0,95,0.00,,---,0.00,VWS V14.01,2013-08-07 08:42:00,
2013-08-07 03:48:00,54.7,53.6,27.82,North,355,3.0,6.0,96,0.00,,---,0.00,VWS V14.01,2013-08-07 08:48:00,
2013-08-07 03:53:00,54.5,53.1,27.82,NNW,335,0.0,1.0,95,0.00,,---,0.00,VWS V14.01,2013-08-07 08:53:00,
2013-08-07 03:58:00,54.4,53.0,27.82,WNW,296,2.0,4.0,95,0.00,,---,0.00,VWS V14.01,2013-08-07 08:58:00,
2013-08-07 04:03:00,54.2,52.8,27.82,NNW,330,4.0,7.0,95,0.00,,---,0.00,VWS V14.01,2013-08-07 09:03:00,
2013-08-07 04:08:00,54.0,52.6,27.82,NNW,344,3.0,5.0,95,0.00,,---,0.00,VWS V14.01,2013-08-07 09:08:00,
2013-08-07 04:13:00,53.7,52.3,27.82,NNW,334,5.0,5.0,95,0.00,,---,0.00,VWS V14.01,2013-08-07 09:13:00,
2013-08-07 04:18:00,53.6,52.2,27.82,NNW,333,3.0,7.0,95,0.00,,---,0.00,VWS V14.01,2013-08-07 09:18:00,
2013-08-07 04:23:00,53.4,52.0,27.82,NNW,340,1.0,3.0,95,0.00,,---,0.00,VWS V14.01,2013-08-07 09:23:00,
2013-08-07 04:29:00,53.3,52.2,27.82,North,351,2.0,4.0,96,0.00,,---,0.00,VWS V14.01,2013-08-07 09:29:00,
2013-08-07 04:34:00,53.3,51.9,27.82,North,360,4.0,4.0,95,0.00,,---,0.00,VWS V14.01,2013-08-07 09:34:00,
2013-08-07 04:39:00,53.1,51.7,27.82,North,5,4.0,4.0,95,0.00,,---,0.00,VWS V14.01,2013-08-07 09:39:00,
2013-08-07 04:45:00,53.0,51.9,27.82,North,350,3.0,4.0,96,0.00,,---,0.00,VWS V14.01,2013-08-07 09:45:00,
2013-08-07 04:50:00,53.0,51.9,27.83,NNW,346,1.0,5.0,96,0.00,,---,0.00,VWS V14.01,2013-08-07 09:50:00,
2013-08-07 04:55:00,52.9,51.8,27.83,North,5,2.0,5.0,96,0.00,,---,0.00,VWS V14.01,2013-08-07 09:55:00,
2013-08-07 05:00:00,52.7,51.6,27.83,NNW,342,0.0,4.0,96,0.00,,---,0.00,VWS V14.01,2013-08-07 10:00:00,
2013-08-07 05:06:00,52.6,51.5,27.83,NNW,342,1.0,8.0,96,0.00,,---,0.00,VWS V14.01,2013-08-07 10:06:00,
2013-08-07 05:11:00,52.4,51.3,27.83,NNW,346,3.0,8.0,96,0.00,,---,0.00,VWS V14.01,2013-08-07 10:11:00,
2013-08-07 05:16:00,52.2,51.1,27.83,NNW,331,5.0,5.0,96,0.00,,---,0.00,VWS V14.01,2013-08-07 10:16:00,
2013-08-07 05:21:00,52.0,50.9,27.83,NNW,338,0.0,0.0,96,0.00,,---,0.00,VWS V14.01,2013-08-07 10:21:00,
2013-08-07 05:26:00,51.9,50.8,27.83,NNW,336,3.0,3.0,96,0.00,,---,0.00,VWS V14.01,2013-08-07 10:26:00,
2013-08-07 05:32:00,51.7,50.6,27.83,NNW,348,1.0,4.0,96,0.00,,---,0.00,VWS V14.01,2013-08-07 10:32:00,
2013-08-07 05:37:00,51.6,50.5,27.83,NW,325,0.0,0.0,96,0.00,,---,0.00,VWS V14.01,2013-08-07 10:37:00,
2013-08-07 05:42:00,51.5,50.4,27.83,NNW,331,2.0,2.0,96,0.00,,---,0.00,VWS V14.01,2013-08-07 10:42:00,
2013-08-07 05:48:00,51.4,50.3,27.84,NW,306,5.0,5.0,96,0.00,,---,0.00,VWS V14.01,2013-08-07 10:48:00,
2013-08-07 05:53:00,51.4,50.3,27.84,NW,306,1.0,2.0,96,0.00,,---,0.00,VWS V14.01,2013-08-07 10:53:00,
2013-08-07 05:58:00,51.2,50.1,27.84,NW,305,0.0,3.0,96,0.00,,---,0.00,VWS V14.01,2013-08-07 10:58:00,
2013-08-07 06:03:00,51.1,50.0,27.85,NW,312,3.0,5.0,96,0.00,,---,0.00,VWS V14.01,2013-08-07 11:03:00,
2013-08-07 06:08:00,50.9,49.8,27.85,NW,319,0.0,2.0,96,0.00,,---,0.00,VWS V14.01,2013-08-07 11:08:00,
2013-08-07 06:14:00,50.8,49.7,27.85,NW,323,2.0,6.0,96,0.00,,---,0.00,VWS V14.01,2013-08-07 11:14:00,
2013-08-07 06:19:00,50.6,49.5,27.84,NW,323,0.0,0.0,96,0.00,,---,0.00,VWS V14.01,2013-08-07 11:19:00,
2013-08-07 06:24:00,50.5,49.4,27.84,NW,323,0.0,1.0,96,0.00,,---,0.00,VWS V14.01,2013-08-07 11:24:00,
2013-08-07 06:29:00,50.4,49.3,27.84,NW,323,0.0,0.0,96,0.00,,---,0.00,VWS V14.01,2013-08-07 11:29:00,
2013-08-07 06:34:00,50.3,49.2,27.85,NW,323,0.0,0.0,96,0.00,,---,0.00,VWS V14.01,2013-08-07 11:34:00,
2013-08-07 06:40:00,50.3,49.2,27.85,NW,323,1.0,1.0,96,0.00,,---,0.00,VWS V14.01,2013-08-07 11:40:00,
2013-08-07 06:45:00,50.5,49.4,27.85,NW,323,0.0,0.0,96,0.00,,---,0.00,VWS V14.01,2013-08-07 11:45:00,
2013-08-07 06:50:00,50.7,49.9,27.85,NW,323,0.0,0.0,97,0.00,,---,0.00,VWS V14.01,2013-08-07 11:50:00,
2013-08-07 06:55:00,51.0,49.9,27.85,NW,323,0.0,1.0,96,0.00,,---,0.00,VWS V14.01,2013-08-07 11:55:00,
2013-08-07 07:00:00,51.4,50.3,27.85,NW,323,0.0,2.0,96,0.00,,---,0.00,VWS V14.01,2013-08-07 12:00:00,
2013-08-07 07:06:00,51.8,50.4,27.85,NW,323,0.0,1.0,95,0.00,,---,0.00,VWS V14.01,2013-08-07 12:06:00,
2013-08-07 07:11:00,52.3,50.6,27.85,NW,324,0.0,1.0,94,0.00,,---,0.00,VWS V14.01,2013-08-07 12:11:00,
2013-08-07 07:16:00,52.6,50.6,27.86,NW,319,1.0,2.0,93,0.00,,---,0.00,VWS V14.01,2013-08-07 12:16:00,
2013-08-07 07:21:00,53.2,51.2,27.86,NW,319,0.0,0.0,93,0.00,,---,0.00,VWS V14.01,2013-08-07 12:21:00,
2013-08-07 07:26:00,53.4,51.1,27.86,NW,323,3.0,4.0,92,0.00,,---,0.00,VWS V14.01,2013-08-07 12:26:00,
2013-08-07 07:32:00,53.7,51.1,27.86,NW,326,1.0,3.0,91,0.00,,---,0.00,VWS V14.01,2013-08-07 12:32:00,
2013-08-07 07:37:00,53.8,51.2,27.86,NW,315,1.0,3.0,91,0.00,,---,0.00,VWS V14.01,2013-08-07 12:37:00,
2013-08-07 07:42:00,54.0,51.1,27.86,NW,320,0.0,0.0,90,0.00,,---,0.00,VWS V14.01,2013-08-07 12:42:00,
2013-08-07 07:47:00,54.2,51.0,27.86,NW,324,0.0,1.0,89,0.00,,---,0.00,VWS V14.01,2013-08-07 12:47:00,
2013-08-07 07:52:00,54.6,51.1,27.86,NW,324,2.0,3.0,88,0.00,,---,0.00,VWS V14.01,2013-08-07 12:52:00,
2013-08-07 07:58:00,54.9,51.4,27.86,NNW,333,0.0,2.0,88,0.00,,---,0.00,VWS V14.01,2013-08-07 12:58:00,
2013-08-07 08:03:00,55.4,51.3,27.87,NW,314,3.0,4.0,86,0.00,,---,0.00,VWS V14.01,2013-08-07 13:03:00,
2013-08-07 08:08:00,55.5,51.4,27.87,NNW,334,2.0,4.0,86,0.00,,---,0.00,VWS V14.01,2013-08-07 13:08:00,
2013-08-07 08:13:00,55.7,51.3,27.87,North,355,2.0,2.0,85,0.00,,---,0.00,VWS V14.01,2013-08-07 13:13:00,
2013-08-07 08:18:00,55.7,51.0,27.87,North,5,4.0,4.0,84,0.00,,---,0.00,VWS V14.01,2013-08-07 13:18:00,
2013-08-07 08:23:00,56.1,51.7,27.87,WNW,300,3.0,4.0,85,0.00,,---,0.00,VWS V14.01,2013-08-07 13:23:00,
2013-08-07 08:28:00,56.6,51.8,27.87,WNW,294,2.0,2.0,84,0.00,,---,0.00,VWS V14.01,2013-08-07 13:28:00,
2013-08-07 08:34:00,57.0,51.6,27.88,NW,304,2.0,4.0,82,0.00,,---,0.00,VWS V14.01,2013-08-07 13:34:00,
2013-08-07 08:39:00,57.2,51.1,27.88,NNW,331,2.0,5.0,80,0.00,,---,0.00,VWS V14.01,2013-08-07 13:39:00,
2013-08-07 08:44:00,57.2,51.4,27.88,NW,316,2.0,4.0,81,0.00,,---,0.00,VWS V14.01,2013-08-07 13:44:00,
2013-08-07 08:49:00,57.5,51.7,27.87,NW,304,5.0,5.0,81,0.00,,---,0.00,VWS V14.01,2013-08-07 13:49:00,
2013-08-07 08:54:00,57.8,52.3,27.87,NNW,340,2.0,4.0,82,0.00,,---,0.00,VWS V14.01,2013-08-07 13:54:00,
2013-08-07 08:59:00,58.0,51.9,27.87,NNW,336,5.0,6.0,80,0.00,,---,0.00,VWS V14.01,2013-08-07 13:59:00,
2013-08-07 09:05:00,57.7,51.2,27.87,NNW,337,7.0,9.0,79,0.00,,---,0.00,VWS V14.01,2013-08-07 14:05:00,
2013-08-07 09:10:00,57.8,51.3,27.87,NNW,337,2.0,7.0,79,0.00,,---,0.00,VWS V14.01,2013-08-07 14:10:00,
2013-08-07 09:15:00,58.1,52.0,27.87,NW,304,2.0,3.0,80,0.00,,---,0.00,VWS V14.01,2013-08-07 14:15:00,
2013-08-07 09:20:00,58.5,52.0,27.87,NNW,336,0.0,5.0,79,0.00,,---,0.00,VWS V14.01,2013-08-07 14:20:00,
2013-08-07 09:26:00,59.0,52.8,27.87,NNW,332,0.0,2.0,80,0.00,,---,0.00,VWS V14.01,2013-08-07 14:26:00,
2013-08-07 09:31:00,59.8,54.0,27.87,NNW,333,1.0,1.0,81,0.00,,---,0.00,VWS V14.01,2013-08-07 14:31:00,
2013-08-07 09:36:00,60.2,53.3,27.88,NE,55,0.0,2.0,78,0.00,,---,0.00,VWS V14.01,2013-08-07 14:36:00,
2013-08-07 09:41:00,60.5,52.5,27.88,NW,323,0.0,4.0,75,0.00,,---,0.00,VWS V14.01,2013-08-07 14:41:00,
2013-08-07 09:46:00,60.4,53.2,27.88,NNE,13,2.0,2.0,77,0.00,,---,0.00,VWS V14.01,2013-08-07 14:46:00,
2013-08-07 09:51:00,60.9,54.0,27.88,West,263,0.0,0.0,78,0.00,,---,0.00,VWS V14.01,2013-08-07 14:51:00,
2013-08-07 09:56:00,61.8,53.4,27.88,NNW,348,0.0,1.0,74,0.00,,---,0.00,VWS V14.01,2013-08-07 14:56:00,
2013-08-07 10:02:00,61.8,51.9,27.89,WNW,295,0.0,4.0,70,0.00,,---,0.00,VWS V14.01,2013-08-07 15:02:00,
2013-08-07 10:07:00,61.6,52.1,27.89,NW,317,3.0,5.0,71,0.00,,---,0.00,VWS V14.01,2013-08-07 15:07:00,
2013-08-07 10:12:00,61.2,50.2,27.89,NW,325,6.0,8.0,67,0.00,,---,0.00,VWS V14.01,2013-08-07 15:12:00,
2013-08-07 10:17:00,60.7,50.5,27.89,NW,324,3.0,7.0,69,0.00,,---,0.00,VWS V14.01,2013-08-07 15:17:00,
2013-08-07 10:22:00,61.5,51.6,27.89,NW,309,5.0,6.0,70,0.00,,---,0.00,VWS V14.01,2013-08-07 15:22:00,
2013-08-07 10:27:00,62.3,52.0,27.89,WNW,297,1.0,5.0,69,0.00,,---,0.00,VWS V14.01,2013-08-07 15:27:00,
2013-08-07 10:33:00,62.7,50.8,27.89,NW,322,3.0,9.0,65,0.00,,---,0.00,VWS V14.01,2013-08-07 15:33:00,
2013-08-07 10:38:00,62.4,50.5,27.89,North,350,3.0,5.0,65,0.00,,---,0.00,VWS V14.01,2013-08-07 15:38:00,
2013-08-07 10:43:00,62.4,48.3,27.89,NW,321,3.0,5.0,60,0.00,,---,0.00,VWS V14.01,2013-08-07 15:43:00,
2013-08-07 10:48:00,62.5,48.0,27.89,NNW,346,6.0,6.0,59,0.00,,---,0.00,VWS V14.01,2013-08-07 15:48:00,
2013-08-07 10:53:00,62.9,49.3,27.89,NW,319,0.0,2.0,61,0.00,,---,0.00,VWS V14.01,2013-08-07 15:53:00,
2013-08-07 10:59:00,63.0,48.9,27.89,North,5,3.0,5.0,60,0.00,,---,0.00,VWS V14.01,2013-08-07 15:59:00,
2013-08-07 11:04:00,63.2,48.2,27.90,NNE,22,4.0,4.0,58,0.00,,---,0.00,VWS V14.01,2013-08-07 16:04:00,
2013-08-07 11:09:00,62.8,47.8,27.90,North,355,0.0,8.0,58,0.00,,---,0.00,VWS V14.01,2013-08-07 16:09:00,
2013-08-07 11:14:00,63.1,47.2,27.90,NNW,331,3.0,3.0,56,0.00,,---,0.00,VWS V14.01,2013-08-07 16:14:00,
2013-08-07 11:19:00,62.9,46.0,27.90,North,5,1.0,5.0,54,0.00,,---,0.00,VWS V14.01,2013-08-07 16:19:00,
2013-08-07 11:25:00,63.3,47.3,27.90,NNW,340,2.0,5.0,56,0.00,,---,0.00,VWS V14.01,2013-08-07 16:25:00,
2013-08-07 11:30:00,63.6,49.0,27.90,NW,305,3.0,8.0,59,0.00,,---,0.00,VWS V14.01,2013-08-07 16:30:00,
2013-08-07 11:35:00,63.2,48.7,27.91,WNW,288,0.0,5.0,59,0.00,,---,0.00,VWS V14.01,2013-08-07 16:35:00,
2013-08-07 11:40:00,63.2,48.2,27.91,NW,307,4.0,6.0,58,0.00,,---,0.00,VWS V14.01,2013-08-07 16:40:00,
2013-08-07 11:45:00,63.6,48.1,27.91,North,5,2.0,6.0,57,0.00,,---,0.00,VWS V14.01,2013-08-07 16:45:00,
2013-08-07 11:50:00,64.0,48.5,27.91,WNW,294,5.0,7.0,57,0.00,,---,0.00,VWS V14.01,2013-08-07 16:50:00,
2013-08-07 11:55:00,64.1,48.6,27.91,West,271,6.0,8.0,57,0.00,,---,0.00,VWS V14.01,2013-08-07 16:55:00,
2013-08-07 12:00:00,63.5,48.0,27.91,WNW,285,2.0,4.0,57,0.00,,---,0.00,VWS V14.01,2013-08-07 17:00:00,
2013-08-07 12:05:00,62.8,47.8,27.91,WNW,284,3.0,6.0,58,0.00,,---,0.00,VWS V14.01,2013-08-07 17:05:00,
2013-08-07 12:11:00,62.6,49.0,27.91,NNW,344,2.0,6.0,61,0.00,,---,0.00,VWS V14.01,2013-08-07 17:11:00,
2013-08-07 12:16:00,63.6,49.0,27.91,NW,325,3.0,6.0,59,0.00,,---,0.00,VWS V14.01,2013-08-07 17:16:00,
2013-08-07 12:21:00,64.2,50.0,27.91,WNW,298,2.0,3.0,60,0.00,,---,0.00,VWS V14.01,2013-08-07 17:21:00,
2013-08-07 12:27:00,64.0,49.4,27.91,WSW,256,5.0,7.0,59,0.00,,---,0.00,VWS V14.01,2013-08-07 17:27:00,
2013-08-07 12:32:00,63.1,48.6,27.91,NW,307,4.0,5.0,59,0.00,,---,0.00,VWS V14.01,2013-08-07 17:32:00,
2013-08-07 12:37:00,62.5,49.3,27.91,WNW,285,2.0,5.0,62,0.00,,---,0.00,VWS V14.01,2013-08-07 17:37:00,
2013-08-07 12:42:00,63.3,49.2,27.91,West,278,0.0,0.0,60,0.00,,---,0.00,VWS V14.01,2013-08-07 17:42:00,
2013-08-07 12:47:00,64.4,49.8,27.91,West,271,6.0,6.0,59,0.00,,---,0.00,VWS V14.01,2013-08-07 17:47:00,
2013-08-07 12:53:00,64.2,48.7,27.91,NNW,337,2.0,7.0,57,0.00,,---,0.00,VWS V14.01,2013-08-07 17:53:00,
2013-08-07 12:58:00,63.3,47.8,27.91,WNW,294,2.0,4.0,57,0.00,,---,0.00,VWS V14.01,2013-08-07 17:58:00,
2013-08-07 13:03:00,62.4,48.3,27.91,WNW,294,2.0,6.0,60,0.00,,---,0.00,VWS V14.01,2013-08-07 18:03:00,
2013-08-07 13:04:00,62.1,48.5,27.91,WNW,284,3.0,5.0,61,0.00,,---,0.00,VWS V14.01,2013-08-07 18:04:00,
2013-08-07 13:09:00,61.6,49.3,27.91,West,271,1.0,6.0,64,0.00,,---,0.00,VWS V14.01,2013-08-07 18:09:00,
2013-08-07 13:15:00,62.3,49.6,27.91,SW,219,3.0,4.0,63,0.00,,---,0.00,VWS V14.01,2013-08-07 18:15:00,
2013-08-07 13:20:00,63.5,48.9,27.92,SW,227,4.0,8.0,59,0.00,,---,0.00,VWS V14.01,2013-08-07 18:20:00,
2013-08-07 13:25:00,64.8,50.2,27.92,NW,306,3.0,6.0,59,0.00,,---,0.00,VWS V14.01,2013-08-07 18:25:00,
2013-08-07 13:30:00,65.2,48.6,27.92,West,259,6.0,6.0,55,0.00,,---,0.00,VWS V14.01,2013-08-07 18:30:00,
2013-08-07 13:35:00,64.1,50.0,27.92,SW,235,0.0,3.0,60,0.00,,---,0.00,VWS V14.01,2013-08-07 18:35:00,
2013-08-07 13:41:00,63.4,49.3,27.92,West,279,3.0,6.0,60,0.00,,---,0.00,VWS V14.01,2013-08-07 18:41:00,
2013-08-07 13:46:00,64.1,50.8,27.92,SW,235,1.0,8.0,62,0.00,,---,0.00,VWS V14.01,2013-08-07 18:46:00,
2013-08-07 13:51:00,65.3,49.2,27.92,NW,325,5.0,5.0,56,0.00,,---,0.00,VWS V14.01,2013-08-07 18:51:00,
2013-08-07 13:56:00,64.8,49.7,27.92,WNW,298,0.0,4.0,58,0.00,,---,0.00,VWS V14.01,2013-08-07 18:56:00,
2013-08-07 14:01:00,64.6,48.6,27.92,SW,217,2.0,6.0,56,0.00,,---,0.00,VWS V14.01,2013-08-07 19:01:00,
2013-08-07 14:07:00,63.8,48.8,27.92,NNW,334,2.0,8.0,58,0.00,,---,0.00,VWS V14.01,2013-08-07 19:07:00,
2013-08-07 14:12:00,64.2,49.6,27.92,NW,320,8.0,8.0,59,0.00,,---,0.00,VWS V14.01,2013-08-07 19:12:00,
2013-08-07 14:17:00,65.0,50.3,27.92,WNW,296,2.0,5.0,59,0.00,,---,0.00,VWS V14.01,2013-08-07 19:17:00,
2013-08-07 14:22:00,64.8,49.7,27.92,WSW,249,0.0,4.0,58,0.00,,---,0.00,VWS V14.01,2013-08-07 19:22:00,
2013-08-07 14:27:00,64.6,48.1,27.92,WNW,302,0.0,7.0,55,0.00,,---,0.00,VWS V14.01,2013-08-07 19:27:00,
2013-08-07 14:32:00,64.6,49.0,27.92,WNW,292,3.0,5.0,57,0.00,,---,0.00,VWS V14.01,2013-08-07 19:32:00,
2013-08-07 14:37:00,65.1,48.5,27.92,WNW,302,8.0,8.0,55,0.00,,---,0.00,VWS V14.01,2013-08-07 19:37:00,
2013-08-07 14:42:00,65.3,48.2,27.92,WNW,294,3.0,6.0,54,0.00,,---,0.00,VWS V14.01,2013-08-07 19:42:00,
2013-08-07 14:47:00,65.0,47.5,27.92,WSW,246,2.0,5.0,53,0.00,,---,0.00,VWS V14.01,2013-08-07 19:47:00,
2013-08-07 14:52:00,65.5,48.9,27.92,NW,313,1.0,4.0,55,0.00,,---,0.00,VWS V14.01,2013-08-07 19:52:00,
2013-08-07 14:57:00,64.8,48.8,27.92,West,279,3.0,6.0,56,0.00,,---,0.00,VWS V14.01,2013-08-07 19:57:00,
2013-08-07 15:02:00,63.4,48.8,27.92,NW,308,3.0,6.0,59,0.00,,---,0.00,VWS V14.01,2013-08-07 20:02:00,
2013-08-07 15:07:00,62.8,50.0,27.92,WNW,300,2.0,2.0,63,0.00,,---,0.00,VWS V14.01,2013-08-07 20:07:00,
2013-08-07 15:13:00,63.9,50.2,27.92,SW,221,3.0,6.0,61,0.00,,---,0.00,VWS V14.01,2013-08-07 20:13:00,
2013-08-07 15:18:00,64.5,50.3,27.92,West,281,5.0,9.0,60,0.00,,---,0.00,VWS V14.01,2013-08-07 20:18:00,
2013-08-07 15:23:00,63.9,48.8,27.92,NW,312,3.0,10.0,58,0.00,,---,0.00,VWS V14.01,2013-08-07 20:23:00,
2013-08-07 15:28:00,62.8,48.3,27.92,WNW,290,4.0,8.0,59,0.00,,---,0.00,VWS V14.01,2013-08-07 20:28:00,
2013-08-07 15:33:00,62.1,48.5,27.92,West,274,9.0,9.0,61,0.00,,---,0.00,VWS V14.01,2013-08-07 20:33:00,
2013-08-07 15:38:00,61.6,48.9,27.92,West,277,1.0,2.0,63,0.00,,---,0.00,VWS V14.01,2013-08-07 20:38:00,
2013-08-07 15:43:00,61.6,48.9,27.92,WNW,284,4.0,5.0,63,0.00,,---,0.00,VWS V14.01,2013-08-07 20:43:00,
2013-08-07 15:49:00,61.6,50.1,27.92,WNW,298,0.0,3.0,66,0.00,,---,0.00,VWS V14.01,2013-08-07 20:49:00,
2013-08-07 15:54:00,62.0,50.5,27.92,WNW,288,3.0,5.0,66,0.00,,---,0.00,VWS V14.01,2013-08-07 20:54:00,
2013-08-07 15:59:00,63.6,51.2,27.92,West,266,6.0,9.0,64,0.00,,---,0.00,VWS V14.01,2013-08-07 20:59:00,
2013-08-07 16:04:00,64.1,50.0,27.92,West,265,2.0,6.0,60,0.00,,---,0.00,VWS V14.01,2013-08-07 21:04:00,
2013-08-07 16:09:00,63.5,48.5,27.92,WSW,248,7.0,7.0,58,0.00,,---,0.00,VWS V14.01,2013-08-07 21:09:00,
2013-08-07 16:14:00,62.8,49.2,27.92,WNW,293,4.0,7.0,61,0.00,,---,0.00,VWS V14.01,2013-08-07 21:14:00,
2013-08-07 16:19:00,63.5,49.4,27.92,WNW,298,6.0,6.0,60,0.00,,---,0.00,VWS V14.01,2013-08-07 21:19:00,
2013-08-07 16:25:00,62.9,49.3,27.92,WNW,284,6.0,8.0,61,0.00,,---,0.00,VWS V14.01,2013-08-07 21:25:00,
2013-08-07 16:30:00,62.5,49.3,27.92,West,261,0.0,3.0,62,0.00,,---,0.00,VWS V14.01,2013-08-07 21:30:00,
2013-08-07 16:35:00,62.7,49.5,27.92,NW,313,7.0,7.0,62,0.00,,---,0.00,VWS V14.01,2013-08-07 21:35:00,
2013-08-07 16:40:00,62.6,49.8,27.92,NW,316,3.0,5.0,63,0.00,,---,0.00,VWS V14.01,2013-08-07 21:40:00,
2013-08-07 16:45:00,62.7,49.5,27.92,West,274,3.0,4.0,62,0.00,,---,0.00,VWS V14.01,2013-08-07 21:45:00,
2013-08-07 16:50:00,62.3,50.0,27.93,WNW,302,0.0,1.0,64,0.00,,---,0.00,VWS V14.01,2013-08-07 21:50:00,
2013-08-07 16:55:00,61.8,48.7,27.93,WNW,286,3.0,7.0,62,0.00,,---,0.00,VWS V14.01,2013-08-07 21:55:00,
2013-08-07 17:01:00,61.4,49.5,27.93,WNW,294,5.0,8.0,65,0.00,,---,0.00,VWS V14.01,2013-08-07 22:01:00,
2013-08-07 17:06:00,62.4,50.1,27.93,WNW,286,3.0,6.0,64,0.00,,---,0.00,VWS V14.01,2013-08-07 22:06:00,
2013-08-07 17:11:00,63.7,50.5,27.93,NW,304,0.0,1.0,62,0.00,,---,0.00,VWS V14.01,2013-08-07 22:11:00,
2013-08-07 17:16:00,63.8,49.7,27.93,West,275,9.0,9.0,60,0.00,,---,0.00,VWS V14.01,2013-08-07 22:16:00,
2013-08-07 17:22:00,63.7,49.6,27.93,NW,317,0.0,6.0,60,0.00,,---,0.00,VWS V14.01,2013-08-07 22:22:00,
2013-08-07 17:27:00,62.8,49.6,27.93,West,278,3.0,5.0,62,0.00,,---,0.00,VWS V14.01,2013-08-07 22:27:00,
2013-08-07 17:32:00,62.2,49.9,27.93,NW,313,2.0,3.0,64,0.00,,---,0.00,VWS V14.01,2013-08-07 22:32:00,
2013-08-07 17:37:00,62.5,49.3,27.93,West,275,0.0,7.0,62,0.00,,---,0.00,VWS V14.01,2013-08-07 22:37:00,
2013-08-07 17:42:00,62.4,49.7,27.93,WNW,300,4.0,5.0,63,0.00,,---,0.00,VWS V14.01,2013-08-07 22:42:00,
2013-08-07 17:47:00,62.9,51.0,27.93,WNW,284,4.0,4.0,65,0.00,,---,0.00,VWS V14.01,2013-08-07 22:47:00,
2013-08-07 17:52:00,63.6,50.4,27.93,WSW,250,2.0,2.0,62,0.00,,---,0.00,VWS V14.01,2013-08-07 22:52:00,
2013-08-07 17:57:00,63.7,50.5,27.93,WNW,298,2.0,5.0,62,0.00,,---,0.00,VWS V14.01,2013-08-07 22:57:00,
2013-08-07 18:03:00,63.9,50.2,27.93,West,263,1.0,1.0,61,0.00,,---,0.00,VWS V14.01,2013-08-07 23:03:00,
2013-08-07 18:08:00,64.2,49.6,27.93,WNW,292,7.0,7.0,59,0.00,,---,0.00,VWS V14.01,2013-08-07 23:08:00,
2013-08-07 18:13:00,64.2,49.6,27.93,NNW,346,5.0,7.0,59,0.00,,---,0.00,VWS V14.01,2013-08-07 23:13:00,
2013-08-07 18:18:00,63.9,49.3,27.93,NNW,336,4.0,8.0,59,0.00,,---,0.00,VWS V14.01,2013-08-07 23:18:00,
2013-08-07 18:24:00,63.6,50.8,27.93,North,355,3.0,5.0,63,0.00,,---,0.00,VWS V14.01,2013-08-07 23:24:00,
2013-08-07 18:29:00,63.3,49.6,27.93,NW,306,3.0,5.0,61,0.00,,---,0.00,VWS V14.01,2013-08-07 23:29:00,
2013-08-07 18:34:00,63.1,50.3,27.94,WNW,294,5.0,5.0,63,0.00,,---,0.00,VWS V14.01,2013-08-07 23:34:00,
2013-08-07 18:39:00,63.0,49.8,27.94,NW,325,1.0,4.0,62,0.00,,---,0.00,VWS V14.01,2013-08-07 23:39:00,
2013-08-07 18:44:00,62.8,49.6,27.94,WNW,282,3.0,5.0,62,0.00,,---,0.00,VWS V14.01,2013-08-07 23:44:00,
2013-08-07 18:50:00,62.7,49.5,27.94,North,355,4.0,9.0,62,0.00,,---,0.00,VWS V14.01,2013-08-07 23:50:00,
2013-08-07 18:55:00,62.6,49.0,27.94,WNW,302,0.0,9.0,61,0.00,,---,0.00,VWS V14.01,2013-08-07 23:55:00,
2013-08-07 19:00:00,62.4,48.8,27.94,WNW,294,3.0,6.0,61,0.00,,---,0.00,VWS V14.01,2013-08-08 00:00:00,
2013-08-07 19:05:00,62.4,49.2,27.94,WNW,296,3.0,3.0,62,0.00,,---,0.00,VWS V14.01,2013-08-08 00:05:00,
2013-08-07 19:10:00,62.3,49.1,27.94,NW,319,4.0,9.0,62,0.00,,---,0.00,VWS V14.01,2013-08-08 00:10:00,
2013-08-07 19:15:00,61.8,48.7,27.94,NW,306,4.0,7.0,62,0.00,,---,0.00,VWS V14.01,2013-08-08 00:15:00,
2013-08-07 19:20:00,61.4,49.1,27.94,WNW,302,2.0,3.0,64,0.00,,---,0.00,VWS V14.01,2013-08-08 00:20:00,
2013-08-07 19:25:00,61.2,48.5,27.94,NW,304,4.0,5.0,63,0.00,,---,0.00,VWS V14.01,2013-08-08 00:25:00,
2013-08-07 19:31:00,60.9,48.7,27.94,WNW,300,1.0,4.0,64,0.00,,---,0.00,VWS V14.01,2013-08-08 00:31:00,
2013-08-07 19:36:00,60.7,48.9,27.94,West,264,0.0,4.0,65,0.00,,---,0.00,VWS V14.01,2013-08-08 00:36:00,
2013-08-07 19:41:00,60.3,48.5,27.94,WNW,284,4.0,4.0,65,0.00,,---,0.00,VWS V14.01,2013-08-08 00:41:00,
2013-08-07 19:46:00,59.8,48.4,27.94,WNW,288,0.0,2.0,66,0.00,,---,0.00,VWS V14.01,2013-08-08 00:46:00,
2013-08-07 19:52:00,59.1,48.2,27.94,West,263,2.0,6.0,67,0.00,,---,0.00,VWS V14.01,2013-08-08 00:52:00,
2013-08-07 19:57:00,58.8,47.9,27.94,West,281,5.0,7.0,67,0.00,,---,0.00,VWS V14.01,2013-08-08 00:57:00,
2013-08-07 20:02:00,58.3,47.8,27.94,West,263,5.0,5.0,68,0.00,,---,0.00,VWS V14.01,2013-08-08 01:02:00,
2013-08-07 20:07:00,57.8,47.3,27.94,WNW,293,0.0,2.0,68,0.00,,---,0.00,VWS V14.01,2013-08-08 01:07:00,
2013-08-07 20:13:00,57.4,47.3,27.94,WNW,284,5.0,5.0,69,0.00,,---,0.00,VWS V14.01,2013-08-08 01:13:00,
2013-08-07 20:18:00,57.0,47.3,27.95,West,262,1.0,3.0,70,0.00,,---,0.00,VWS V14.01,2013-08-08 01:18:00,
2013-08-07 20:23:00,56.7,47.0,27.95,West,263,0.0,2.0,70,0.00,,---,0.00,VWS V14.01,2013-08-08 01:23:00,
2013-08-07 20:28:00,56.2,46.9,27.95,West,264,0.0,2.0,71,0.00,,---,0.00,VWS V14.01,2013-08-08 01:28:00,
2013-08-07 20:33:00,55.7,46.8,27.95,West,265,0.0,0.0,72,0.00,,---,0.00,VWS V14.01,2013-08-08 01:33:00,
2013-08-07 20:38:00,55.3,46.8,27.95,West,265,0.0,1.0,73,0.00,,---,0.00,VWS V14.01,2013-08-08 01:38:00,
2013-08-07 20:44:00,55.0,46.9,27.95,West,265,0.0,0.0,74,0.00,,---,0.00,VWS V14.01,2013-08-08 01:44:00,
2013-08-07 20:49:00,54.6,46.8,27.95,West,265,0.0,0.0,75,0.00,,---,0.00,VWS V14.01,2013-08-08 01:49:00,
2013-08-07 20:54:00,54.1,46.4,27.95,West,265,0.0,0.0,75,0.00,,---,0.00,VWS V14.01,2013-08-08 01:54:00,
2013-08-07 20:59:00,53.7,46.0,27.95,West,265,0.0,1.0,75,0.00,,---,0.00,VWS V14.01,2013-08-08 01:59:00,
2013-08-07 21:04:00,53.3,45.9,27.96,West,265,0.0,1.0,76,0.00,,---,0.00,VWS V14.01,2013-08-08 02:04:00,
2013-08-07 21:09:00,52.9,45.5,27.96,West,265,0.0,1.0,76,0.00,,---,0.00,VWS V14.01,2013-08-08 02:09:00,
2013-08-07 21:14:00,52.6,45.3,27.96,West,265,0.0,3.0,76,0.00,,---,0.00,VWS V14.01,2013-08-08 02:14:00,
2013-08-07 21:19:00,52.4,45.1,27.97,West,265,0.0,1.0,76,0.00,,---,0.00,VWS V14.01,2013-08-08 02:19:00,
2013-08-07 21:24:00,52.3,44.6,27.97,West,265,0.0,1.0,75,0.00,,---,0.00,VWS V14.01,2013-08-08 02:24:00,
2013-08-07 21:29:00,52.1,44.4,27.97,West,265,0.0,0.0,75,0.00,,---,0.00,VWS V14.01,2013-08-08 02:29:00,
2013-08-07 21:35:00,51.8,44.5,27.97,West,265,0.0,0.0,76,0.00,,---,0.00,VWS V14.01,2013-08-08 02:35:00,
2013-08-07 21:40:00,51.5,44.2,27.97,West,265,0.0,0.0,76,0.00,,---,0.00,VWS V14.01,2013-08-08 02:40:00,
2013-08-07 21:45:00,51.0,44.0,27.97,West,265,0.0,0.0,77,0.00,,---,0.00,VWS V14.01,2013-08-08 02:45:00,
2013-08-07 21:50:00,50.6,44.3,27.97,West,265,0.0,0.0,79,0.00,,---,0.00,VWS V14.01,2013-08-08 02:50:00,
2013-08-07 21:55:00,50.2,44.6,27.97,West,265,0.0,0.0,81,0.00,,---,0.00,VWS V14.01,2013-08-08 02:55:00,
2013-08-07 22:00:00,49.9,44.6,27.97,West,265,0.0,0.0,82,0.00,,---,0.00,VWS V14.01,2013-08-08 03:00:00,
2013-08-07 22:05:00,49.4,44.1,27.97,West,265,0.0,0.0,82,0.00,,---,0.00,VWS V14.01,2013-08-08 03:05:00,
2013-08-07 22:10:00,49.3,44.0,27.97,West,265,0.0,0.0,82,0.00,,---,0.00,VWS V14.01,2013-08-08 03:10:00,
2013-08-07 22:16:00,49.5,43.9,27.97,West,265,0.0,0.0,81,0.00,,---,0.00,VWS V14.01,2013-08-08 03:16:00,
2013-08-07 22:21:00,49.8,44.2,27.97,West,265,1.0,2.0,81,0.00,,---,0.00,VWS V14.01,2013-08-08 03:21:00,
2013-08-07 22:26:00,50.1,44.2,27.97,West,265,0.0,0.0,80,0.00,,---,0.00,VWS V14.01,2013-08-08 03:26:00,
2013-08-07 22:31:00,50.5,44.2,27.97,West,265,0.0,1.0,79,0.00,,---,0.00,VWS V14.01,2013-08-08 03:31:00,
2013-08-07 22:36:00,50.8,44.5,27.97,West,265,0.0,0.0,79,0.00,,---,0.00,VWS V14.01,2013-08-08 03:36:00,
2013-08-07 22:42:00,51.0,44.7,27.97,West,265,0.0,2.0,79,0.00,,---,0.00,VWS V14.01,2013-08-08 03:42:00,
2013-08-07 22:47:00,51.0,44.4,27.98,West,265,1.0,2.0,78,0.00,,---,0.00,VWS V14.01,2013-08-08 03:47:00,
2013-08-07 22:52:00,51.0,44.7,27.98,West,265,0.0,0.0,79,0.00,,---,0.00,VWS V14.01,2013-08-08 03:52:00,
2013-08-07 22:57:00,50.9,44.6,27.98,West,265,0.0,0.0,79,0.00,,---,0.00,VWS V14.01,2013-08-08 03:57:00,
2013-08-07 23:01:00,50.9,44.6,27.98,West,265,0.0,0.0,79,0.00,,---,0.00,VWS V14.01,2013-08-08 04:01:00,
2013-08-07 23:02:00,50.9,44.6,27.98,West,265,0.0,0.0,79,0.00,,---,0.00,VWS V14.01,2013-08-08 04:02:00,
2013-08-07 23:07:00,50.9,44.6,27.98,West,265,0.0,0.0,79,0.00,,---,0.00,VWS V14.01,2013-08-08 04:07:00,
2013-08-07 23:08:00,50.9,44.6,27.98,West,265,0.0,0.0,79,0.00,,---,0.00,VWS V14.01,2013-08-08 04:08:00,
2013-08-07 23:13:00,50.8,44.5,27.98,West,265,0.0,0.0,79,0.00,,---,0.00,VWS V14.01,2013-08-08 04:13:00,
2013-08-07 23:18:00,50.8,44.9,27.98,West,265,0.0,0.0,80,0.00,,---,0.00,VWS V14.01,2013-08-08 04:18:00,
2013-08-07 23:23:00,50.9,45.0,27.98,West,265,0.0,0.0,80,0.00,,---,0.00,VWS V14.01,2013-08-08 04:23:00,
2013-08-07 23:28:00,51.0,45.1,27.98,West,265,0.0,0.0,80,0.00,,---,0.00,VWS V14.01,2013-08-08 04:28:00,
2013-08-07 23:33:00,50.9,45.3,27.98,West,265,0.0,0.0,81,0.00,,---,0.00,VWS V14.01,2013-08-08 04:33:00,
2013-08-07 23:38:00,50.8,45.5,27.98,West,265,0.0,0.0,82,0.00,,---,0.00,VWS V14.01,2013-08-08 04:38:00,
2013-08-07 23:43:00,50.7,46.0,27.98,West,265,0.0,0.0,84,0.00,,---,0.00,VWS V14.01,2013-08-08 04:43:00,
2013-08-07 23:48:00,50.6,46.6,27.98,West,265,0.0,0.0,86,0.00,,---,0.00,VWS V14.01,2013-08-08 04:48:00,
2013-08-07 23:53:00,50.5,47.1,27.98,West,265,0.0,0.0,88,0.00,,---,0.00,VWS V14.01,2013-08-08 04:53:00,
2013-08-07 23:58:00,50.3,47.2,27.98,West,265,0.0,0.0,89,0.00,,---,0.00,VWS V14.01,2013-08-08 04:58:00,